This demonstration page uses our WeatherBlox Daily Observations layout. Learn more.

Left ArrowRight Arrow

39.08367, -84.50855

Hourly Observations for August 4, 2021

Temp ( °F °C ) Dew Point ( °F °C ) Humidity (%) Winds ( mph kmh ) Pressure ( in mb ) Visibility ( mi km ) Precip ( " mm )
12:53 am 00:53 Clear 60 15.6 57 13.9 90 90 N N/A 30.06 1018 10 16 N/A
1:53 am 01:53 Clear 60 15.6 57 13.9 90 90 N N/A 30.05 1018 10 16 N/A
2:53 am 02:53 Clear 58 14.4 57 13.9 97 97 N N/A 30.05 1018 10 16 N/A
3:53 am 03:53 Clear 58 14.4 57 13.9 97 97 N N/A 30.05 1018 10 16 N/A
4:53 am 04:53 Clear 56 13.3 55 12.8 97 97 N N/A 30.06 1018 8 13 N/A
5:53 am 05:53 Clear with Mist and Fog 57 13.9 56 13.3 96 96 N N/A 30.06 1018 4 6 N/A
6:02 am 06:02 Clear with Mist and Fog 57 13.9 56 13.3 96 96 N N/A 30.08 1019 3 4 N/A
6:09 am 06:09 Clear 56 13.3 56 13.3 100 100 N N/A 30.08 1019 9 14 N/A
6:53 am 06:53 Sunny 56 13.3 55 12.8 97 97 N N/A 30.08 1019 9 14 N/A
7:53 am 07:53 Sunny 60 15.6 57 13.9 90 90 N N/A 30.09 1019 10 16 N/A
8:53 am 08:53 Sunny 66 18.9 58 14.4 75 75 ENE 5 7 30.10 1019 10 16 N/A
9:53 am 09:53 Mostly Sunny 69 20.6 58 14.4 68 68 E 5 7 30.10 1019 10 16 N/A
10:53 am 10:53 Partly Cloudy 74 23.3 60 15.6 62 62 ENE 6 9 30.10 1019 10 16 N/A
11:53 am 11:53 Partly Cloudy 77 25 60 15.6 56 56 ENE 9 15 30.11 1020 10 16 N/A
12:53 pm 12:53 Mostly Cloudy 79 26.1 59 15 50 50 NE 12 19 30.10 1019 10 16 N/A
1:53 pm 13:53 Mostly Cloudy 79 26.1 57 13.9 47 47 ENE 9 15 30.09 1019 10 16 N/A
2:53 pm 14:53 Mostly Cloudy 80 26.7 56 13.3 44 44 ENE 12 19 30.09 1019 10 16 N/A
3:53 pm 15:53 Mostly Cloudy 82 27.8 56 13.3 41 41 E 12 19 30.07 1018 10 16 N/A
4:53 pm 16:53 Mostly Cloudy 80 26.7 57 13.9 45 45 NE 8 13 30.07 1018 10 16 N/A
5:53 pm 17:53 Cloudy 80 26.7 58 14.4 47 47 NNE 8 13 30.06 1018 10 16 N/A
6:53 pm 18:53 Mostly Cloudy 79 26.1 58 14.4 49 49 NE 9 15 30.06 1018 10 16 N/A
7:53 pm 19:53 Mostly Cloudy 76 24.4 59 15 56 56 NE 3 6 30.07 1018 10 16 N/A
8:53 pm 20:53 Cloudy 71 21.7 63 17.2 76 76 N N/A 30.07 1018 10 16 N/A
9:53 pm 21:53 Mostly Clear 68 20 62 16.7 81 81 N N/A 30.08 1019 10 16 N/A
10:53 pm 22:53 Cloudy 68 20 62 16.7 81 81 N N/A 30.10 1019 10 16 N/A
11:53 pm 23:53 Clear 65 18.3 61 16.1 87 87 N N/A 30.10 1019 10 16 N/A

Powered by AerisWeather